FW3893 Weather Reports


time (UTC)temp
F
wind
direction
speed
knots
gust
knots
rain 1hr
in
rain 24hr
in
rain mn
in
humidity
%
barometer
mb
20260507093816 66 0.0 0.0 0.00 0.00 0.00 69 1009.1
20260507092818 65 0.0 0.0 0.00 0.00 0.00 70 1009.1
20260507091819 64 0.0 0.0 0.00 0.00 0.00 70 1009.3
20260507090821 63 0.0 0.0 0.00 0.00 0.00 69 1009.3
20260507085823 64 0.0 0.0 0.00 0.00 0.00 69 1009.2
20260507084836 63 0.0 0.0 0.00 0.00 0.00 68 1009.2
20260507083817 64 0.0 0.0 0.00 0.00 0.00 68 1009.2
20260507082820 63 0.0 0.0 0.00 0.00 0.00 69 1009.3
20260507081823 64 0.0 0.0 0.00 0.00 0.00 69 1009.0
20260507080815 64 0.0 0.0 0.00 0.00 0.00 69 1008.9
20260507075818 63 0.0 0.0 0.00 0.00 0.00 69 1009.0
20260507074821 63 0.0 0.0 0.00 0.00 0.00 70 1009.0
20260507073823 62 0.0 0.0 0.00 0.00 0.00 71 1009.0
20260507072825 62 0.0 0.0 0.00 0.00 0.00 71 1009.0
20260507071817 61 0.0 0.0 0.00 0.00 0.00 73 1008.7
20260507070819 61 0.0 0.0 0.00 0.00 0.00 73 1008.7
20260507065820 60 0.0 0.0 0.00 0.00 0.00 75 1008.4
20260507064843 59 0.0 0.0 0.00 0.00 0.00 76 1008.4
20260507063825 59 0.0 0.0 0.00 0.00 0.00 78 1008.5
20260507062816 59 0.0 0.0 0.00 0.00 0.00 78 1008.5
20260507061818 58 0.0 0.0 0.00 0.00 0.00 82 1008.6
20260507060820 55 0.0 0.0 0.00 0.00 0.00 84 1008.6
20260507055822 53 0.0 0.0 0.00 0.00 0.00 84 1008.5
20260507054824 52 0.0 0.0 0.00 0.00 0.00 84 1008.5
20260507053836 52 0.0 0.0 0.00 0.00 0.00 84 1008.2
20260507052839 52 0.0 0.0 0.00 0.00 0.00 86 1008.2
20260507051822 50 0.0 0.0 0.00 0.00 0.00 86 1008.0
20260507050824 50 0.0 0.0 0.00 0.00 0.00 86 1008.0
20260507045816 49 0.0 0.0 0.00 0.00 0.00 86 1007.7
20260507044818 48 0.0 0.0 0.00 0.00 0.00 86 1007.7
20260507043821 48 0.0 0.0 0.00 0.00 0.00 86 1007.5
20260507042824 48 0.0 0.0 0.00 0.00 0.00 86 1007.5
20260507041816 48 0.0 0.0 0.00 0.00 0.00 85 1007.2
20260507040818 48 0.0 0.0 0.00 0.00 0.00 85 1007.2
20260507035821 48 0.0 0.0 0.00 0.00 0.00 85 1007.3
20260507034822 48 0.0 0.0 0.00 0.00 0.00 85 1007.4
20260507033825 48 0.0 0.0 0.00 0.00 0.00 84 1007.3
20260507032816 48 0.0 0.0 0.00 0.00 0.00 83 1007.3
20260507031819 49 0.0 0.0 0.00 0.00 0.00 83 1007.4
20260507030820 49 0.0 0.0 0.00 0.00 0.00 82 1007.4
20260507025843 49 0.0 0.0 0.00 0.00 0.00 83 1007.3
20260507024815 50 0.0 0.0 0.00 0.00 0.00 82 1007.3
20260507023817 50 0.0 0.0 0.00 0.00 0.00 82 1007.2
20260507022820 50 0.0 0.0 0.00 0.00 0.00 82 1007.2
20260507021822 51 0.0 0.0 0.00 0.00 0.00 82 1007.2
20260507020823 50 0.0 0.0 0.00 0.00 0.00 82 1007.2
20260507015816 50 0.0 0.0 0.00 0.00 0.00 81 1007.2
20260507014817 51 0.0 0.0 0.00 0.00 0.00 82 1007.2
20260507013840 50 0.0 0.0 0.00 0.00 0.00 82 1007.1
20260507012822 50 0.0 0.0 0.00 0.00 0.00 82 1007.1
20260507011824 50 0.0 0.0 0.00 0.00 0.00 81 1007.0
20260507010816 50 0.0 0.0 0.00 0.00 0.00 81 1007.0
20260507005818 50 0.0 0.0 0.00 0.00 0.00 82 1006.8
20260507004841 50 0.0 0.0 0.00 0.00 0.00 81 1006.8
20260507003822 50 0.0 0.0 0.00 0.00 0.00 81 1007.0
20260507002824 50 0.0 0.0 0.00 0.00 0.00 81 1007.0
20260507001836 51 0.0 0.0 0.00 0.00 0.00 81 1006.6
20260507000819 51 0.0 0.0 0.00 0.00 0.00 80 1006.6
20260506235822 51 0.0 0.0 0.00 0.00 0.00 80 1006.7
20260506234824 51 0.0 0.0 0.00 0.00 0.00 80 1006.7
20260506233816 51 0.0 0.0 0.00 0.00 0.00 81 1006.7
20260506232838 51 0.0 0.0 0.00 0.00 0.00 82 1006.7
20260506231840 50 0.0 0.0 0.00 0.00 0.00 82 1006.6
20260506230823 50 0.0 0.0 0.00 0.00 0.00 82 1006.6
20260506225825 50 0.0 0.0 0.00 0.00 0.00 82 1006.4
20260506224818 50 0.0 0.0 0.00 0.00 0.00 81 1006.3
20260506223821 50 0.0 0.0 0.00 0.00 0.00 80 1006.5
20260506222823 51 0.0 0.0 0.00 0.00 0.00 80 1006.5
20260506221815 51 0.0 0.0 0.00 0.00 0.00 79 1006.5
20260506220818 51 0.0 0.0 0.00 0.00 0.00 78 1006.5
20260506215840 52 0.0 0.0 0.00 0.00 0.00 79 1006.4
20260506214822 52 0.0 0.0 0.00 0.00 0.00 78 1006.4
20260506213824 52 0.0 0.0 0.00 0.00 0.00 77 1006.4
20260506212816 53 0.0 0.0 0.00 0.00 0.00 76 1006.5
20260506211818 53 0.0 0.0 0.00 0.00 0.00 75 1006.5
20260506210842 53 0.0 0.0 0.00 0.00 0.00 74 1006.5
20260506205825 54 0.0 0.0 0.00 0.00 0.00 72 1006.3
20260506204817 55 0.0 0.0 0.00 0.00 0.00 71 1006.3
20260506203839 57 0.0 0.0 0.00 0.00 0.00 67 1006.4
20260506202822 57 0.0 0.0 0.00 0.00 0.00 66 1006.4
20260506201823 57 0.0 0.0 0.00 0.00 0.00 66 1006.3
20260506200816 58 0.0 0.0 0.00 0.00 0.00 65 1006.3
20260506195818 58 0.0 0.0 0.00 0.00 0.00 64 1006.2
20260506194820 59 0.0 0.0 0.00 0.00 0.00 63 1006.2
20260506193823 59 0.0 0.0 0.00 0.00 0.00 61 1005.9
20260506192815 60 0.0 0.0 0.00 0.00 0.00 60 1005.9
20260506191817 60 0.0 0.0 0.00 0.00 0.00 60 1005.5
20260506190819 61 0.0 0.0 0.00 0.00 0.00 58 1005.5
20260506185821 62 0.0 0.0 0.00 0.00 0.00 56 1005.2
20260506184823 62 0.0 0.0 0.00 0.00 0.00 55 1005.2
20260506183845 62 0.0 0.0 0.00 0.00 0.00 54 1004.5
20260506182817 62 0.0 0.0 0.00 0.00 0.00 53 1004.5
20260506181839 63 0.0 0.0 0.00 0.00 0.00 51 1003.9
20260506180822 64 0.0 0.0 0.00 0.00 0.00 51 1003.9
20260506175823 64 0.0 0.0 0.00 0.00 0.00 50 1003.6
20260506174815 65 0.0 0.0 0.00 0.00 0.00 48 1003.6
20260506173817 66 0.0 0.0 0.00 0.00 0.00 48 1003.2
20260506172819 66 0.0 0.0 0.00 0.00 0.00 49 1003.2
20260506171821 67 0.0 0.0 0.00 0.00 0.00 48 1003.1
20260506170844 67 0.0 0.0 0.00 0.00 0.00 47 1003.1
20260506165816 67 0.0 0.0 0.00 0.00 0.00 45 1002.9
20260506164838 68 0.0 0.0 0.00 0.00 0.00 45 1002.9
20260506163820 68 0.0 0.0 0.00 0.00 0.00 46 1002.8
20260506162822 68 0.0 0.0 0.00 0.00 0.00 45 1002.8
20260506161824 69 0.0 0.0 0.00 0.00 0.00 45 1003.2
20260506160816 69 0.0 0.0 0.00 0.00 0.00 45 1003.2
20260506155818 69 0.0 0.0 0.00 0.00 0.00 44 1002.7
20260506154823 69 0.0 0.0 0.00 0.00 0.00 44 1002.7
20260506153824 70 0.0 0.0 0.00 0.00 0.00 47 1003.2
20260506152817 70 0.0 0.0 0.00 0.00 0.00 47 1003.2
20260506151820 70 0.0 0.0 0.00 0.00 0.00 46 1003.0
20260506150821 71 0.0 0.0 0.00 0.00 0.00 47 1003.0
20260506145824 71 0.0 0.0 0.00 0.00 0.00 47 1003.1
20260506144816 71 0.0 0.0 0.00 0.00 0.00 46 1003.1
20260506143819 71 0.0 0.0 0.00 0.00 0.00 49 1003.2
20260506142820 70 0.0 0.0 0.00 0.00 0.00 51 1003.2
20260506141842 70 0.0 0.0 0.00 0.00 0.00 49 1003.0
20260506140835 70 0.0 0.0 0.00 0.00 0.00 49 1003.0
20260506135837 70 0.0 0.0 0.00 0.00 0.00 51 1003.3
20260506134840 70 0.0 0.0 0.00 0.00 0.00 51 1003.3
20260506133843 70 0.0 0.0 0.00 0.00 0.00 49 1003.8
20260506132825 70 0.0 0.0 0.00 0.00 0.00 49 1003.8
20260506131817 70 0.0 0.0 0.00 0.00 0.00 49 1003.7
20260506130819 71 0.0 0.0 0.00 0.00 0.00 49 1003.7
20260506125820 71 0.0 0.0 0.00 0.00 0.00 53 1003.5
20260506124843 70 0.0 0.0 0.00 0.00 0.00 54 1003.5
20260506123815 71 0.0 0.0 0.00 0.00 0.00 54 1003.6
20260506122838 71 0.0 0.0 0.00 0.00 0.00 62 1003.6
20260506121821 70 0.0 0.0 0.00 0.00 0.00 67 1003.5
20260506120823 69 0.0 0.0 0.00 0.00 0.00 69 1003.5
20260506115816 68 0.0 0.0 0.00 0.00 0.00 74 1003.7
20260506114818 67 0.0 0.0 0.00 0.00 0.00 75 1003.7
20260506113821 66 0.0 0.0 0.00 0.00 0.00 76 1003.7
20260506112824 66 0.0 0.0 0.00 0.00 0.00 73 1003.7
20260506111816 65 0.0 0.0 0.00 0.00 0.00 80 1003.7
20260506110818 65 0.0 0.0 0.00 0.00 0.00 81 1003.7
20260506105821 65 0.0 0.0 0.00 0.00 0.00 84 1004.1
20260506104823 65 0.0 0.0 0.00 0.00 0.00 85 1004.1
20260506103815 64 0.0 0.0 0.00 0.00 0.00 87 1004.3
20260506102817 63 0.0 0.0 0.00 0.00 0.00 89 1004.3
20260506101839 62 0.0 0.0 0.00 0.00 0.00 90 1004.3
20260506100821 61 0.0 0.0 0.00 0.00 0.00 91 1004.3
20260506095823 60 0.0 0.0 0.00 0.00 0.00 91 1004.5
20260506094825 61 0.0 0.0 0.00 0.00 0.00 91 1004.5